Terug naar catalogus

SHERPA-FX2/TAGSAT-2

ActiefWetenschapPO
NORAD 48958·PAYLOAD·🇺🇸 United States

Gelanceerd Jun 30, 2021 vanaf Cape Canaveral Space Force Station

Loading…

Volgende Passages (komende 24 uur)

TLE

VersSource: Space-Track

Epoch: Sep 14, 2026, 00:19 UTC

1 48958U 21059CH  26257.01379189  .00020620  00000-0  26053-3 0  9990
2 48958  97.6785  97.9612 0006249  22.2137 337.9389 15.59563122291250

Volg SHERPA-FX2/TAGSAT-2 in realtime met AllMySat

Download on the App Store